TimeMDT,TemperatureF,Dew PointF,Humidity,Sea Level PressureIn,VisibilityMPH,Wind Direction,Wind SpeedMPH,Gust SpeedMPH,PrecipitationIn,Events,Conditions,WindDirDegrees,DateUTC
12:15 AM,57.2,54.5,91,29.91,10.0,Calm,Calm,-,N/A,,Clear,0,2013-09-22 06:15:00
12:35 AM,57.2,54.5,91,29.91,10.0,Calm,Calm,-,N/A,,Clear,0,2013-09-22 06:35:00
12:55 AM,56.8,53.6,89,29.90,10.0,South,3.5,-,N/A,,Clear,190,2013-09-22 06:55:00
1:15 AM,56.7,53.1,88,29.91,10.0,South,3.5,-,N/A,,Clear,190,2013-09-22 07:15:00
1:35 AM,56.5,53.6,90,29.90,10.0,Calm,Calm,-,N/A,,Clear,0,2013-09-22 07:35:00
1:55 AM,56.3,53.2,89,29.90,10.0,Calm,Calm,-,N/A,,Clear,0,2013-09-22 07:55:00
2:15 AM,56.1,53.6,91,29.90,10.0,Calm,Calm,-,N/A,,Clear,0,2013-09-22 08:15:00
2:35 AM,55.8,53.4,92,29.89,10.0,South,3.5,-,N/A,,Clear,190,2013-09-22 08:35:00
2:55 AM,55.4,53.1,92,29.88,10.0,Calm,Calm,-,N/A,,Clear,0,2013-09-22 08:55:00
3:15 AM,55.4,53.8,94,29.88,10.0,Calm,Calm,-,N/A,,Clear,0,2013-09-22 09:15:00
3:35 AM,55.2,53.1,92,29.88,10.0,Calm,Calm,-,N/A,,Clear,0,2013-09-22 09:35:00
3:55 AM,55.4,52.7,91,29.88,10.0,Calm,Calm,-,N/A,,Clear,0,2013-09-22 09:55:00
4:15 AM,55.4,52.9,91,29.89,10.0,Calm,Calm,-,N/A,,Clear,0,2013-09-22 10:15:00
4:35 AM,58.8,49.6,72,29.90,10.0,West,3.5,-,N/A,,Clear,260,2013-09-22 10:35:00
4:55 AM,56.8,50.0,78,29.90,10.0,Calm,Calm,-,N/A,,Clear,0,2013-09-22 10:55:00
5:15 AM,55.6,51.1,85,29.90,10.0,Calm,Calm,-,N/A,,Clear,0,2013-09-22 11:15:00
5:35 AM,54.5,52.3,92,29.90,10.0,Calm,Calm,-,N/A,,Clear,0,2013-09-22 11:35:00
5:55 AM,54.1,53.8,99,29.90,10.0,Calm,Calm,-,N/A,,Clear,0,2013-09-22 11:55:00
6:15 AM,53.6,53.6,100,29.90,10.0,Calm,Calm,-,N/A,,Clear,0,2013-09-22 12:15:00
6:35 AM,53.6,53.6,100,29.90,10.0,Calm,Calm,-,N/A,,Clear,0,2013-09-22 12:35:00
6:55 AM,54.7,54.7,100,29.91,10.0,Calm,Calm,-,N/A,,Clear,0,2013-09-22 12:55:00
7:15 AM,57.4,53.6,87,29.92,10.0,Calm,Calm,-,N/A,,Clear,0,2013-09-22 13:15:00
7:35 AM,61.0,52.2,73,29.92,10.0,West,4.6,-,N/A,,Clear,280,2013-09-22 13:35:00
7:55 AM,62.4,52.9,71,29.92,10.0,West,4.6,-,N/A,,Clear,280,2013-09-22 13:55:00
8:15 AM,63.7,53.1,68,29.93,10.0,NW,3.5,-,N/A,,Clear,310,2013-09-22 14:15:00
8:35 AM,65.7,53.2,64,29.94,10.0,WNW,3.5,-,N/A,,Clear,290,2013-09-22 14:35:00
8:55 AM,68.0,53.4,60,29.94,10.0,Calm,Calm,-,N/A,,Clear,0,2013-09-22 14:55:00
9:15 AM,69.8,52.7,54,29.94,10.0,Calm,Calm,-,N/A,,Clear,0,2013-09-22 15:15:00
9:35 AM,72.3,52.3,49,29.94,10.0,NE,3.5,-,N/A,,Clear,40,2013-09-22 15:35:00
9:55 AM,73.8,51.4,45,29.94,10.0,ESE,3.5,-,N/A,,Clear,120,2013-09-22 15:55:00
10:15 AM,74.3,51.6,45,29.94,10.0,NNE,3.5,-,N/A,,Clear,20,2013-09-22 16:15:00
10:35 AM,75.6,51.6,43,29.94,10.0,East,3.5,-,N/A,,Clear,80,2013-09-22 16:35:00
10:55 AM,76.6,49.8,39,29.93,10.0,NNE,5.8,-,N/A,,Clear,20,2013-09-22 16:55:00
11:15 AM,77.4,47.7,35,29.93,10.0,East,3.5,-,N/A,,Clear,90,2013-09-22 17:15:00
11:35 AM,78.6,48.2,34,29.92,10.0,North,4.6,-,N/A,,Clear,360,2013-09-22 17:35:00
11:55 AM,79.7,48.0,33,29.91,10.0,North,5.8,-,N/A,,Clear,10,2013-09-22 17:55:00
12:15 PM,79.9,46.9,31,29.91,10.0,North,4.6,-,N/A,,Clear,10,2013-09-22 18:15:00
12:35 PM,81.0,46.0,29,29.90,10.0,NNE,5.8,-,N/A,,Clear,30,2013-09-22 18:35:00
12:55 PM,81.1,46.4,29,29.88,10.0,North,4.6,-,N/A,,Clear,10,2013-09-22 18:55:00
1:15 PM,81.3,46.4,29,29.88,10.0,NE,8.1,-,N/A,,Clear,50,2013-09-22 19:15:00
1:35 PM,81.9,46.2,29,29.87,10.0,NE,5.8,-,N/A,,Clear,50,2013-09-22 19:35:00
1:55 PM,82.6,46.6,28,29.85,10.0,North,5.8,-,N/A,,Clear,350,2013-09-22 19:55:00
2:15 PM,83.5,44.4,25,29.85,10.0,East,5.8,-,N/A,,Clear,80,2013-09-22 20:15:00
2:35 PM,83.1,46.6,28,29.84,10.0,ENE,5.8,-,N/A,,Clear,60,2013-09-22 20:35:00
2:55 PM,83.1,44.2,25,29.83,10.0,ENE,4.6,-,N/A,,Clear,70,2013-09-22 20:55:00
3:15 PM,83.3,45.1,26,29.82,10.0,ENE,8.1,-,N/A,,Clear,60,2013-09-22 21:15:00
3:35 PM,83.1,45.1,26,29.82,10.0,NNE,4.6,-,N/A,,Clear,30,2013-09-22 21:35:00
3:55 PM,83.5,44.8,26,29.81,10.0,NNE,6.9,-,N/A,,Clear,30,2013-09-22 21:55:00
4:15 PM,83.3,45.0,26,29.81,10.0,ENE,6.9,-,N/A,,Clear,60,2013-09-22 22:15:00
4:35 PM,82.9,44.8,26,29.80,10.0,NNE,4.6,-,N/A,,Clear,20,2013-09-22 22:35:00
4:55 PM,82.4,43.9,26,29.80,10.0,NE,3.5,-,N/A,,Clear,40,2013-09-22 22:55:00
5:15 PM,82.0,42.4,25,29.80,10.0,ENE,3.5,-,N/A,,Clear,60,2013-09-22 23:15:00
5:35 PM,81.1,43.0,26,29.81,10.0,NE,5.8,-,N/A,,Clear,50,2013-09-22 23:35:00
5:55 PM,80.1,44.1,28,29.81,10.0,Calm,Calm,-,N/A,,Clear,0,2013-09-22 23:55:00
6:15 PM,78.8,44.8,30,29.81,10.0,Calm,Calm,-,N/A,,Clear,0,2013-09-23 00:15:00
6:35 PM,74.7,47.5,38,29.81,10.0,Calm,Calm,-,N/A,,Clear,0,2013-09-23 00:35:00
6:55 PM,71.8,48.0,43,29.81,10.0,East,3.5,-,N/A,,Clear,90,2013-09-23 00:55:00
7:15 PM,70.7,48.4,45,29.81,10.0,Calm,Calm,-,N/A,,Clear,0,2013-09-23 01:15:00
7:35 PM,69.8,49.8,49,29.81,10.0,Calm,Calm,-,N/A,,Clear,0,2013-09-23 01:35:00
7:55 PM,68.4,50.7,53,29.82,10.0,SE,3.5,-,N/A,,Clear,130,2013-09-23 01:55:00
8:15 PM,67.1,51.8,58,29.82,10.0,Calm,Calm,-,N/A,,Clear,0,2013-09-23 02:15:00
8:35 PM,66.2,52.0,60,29.83,10.0,SE,3.5,-,N/A,,Clear,140,2013-09-23 02:35:00
8:55 PM,66.6,50.9,57,29.83,10.0,SSE,3.5,-,N/A,,Clear,160,2013-09-23 02:55:00
9:15 PM,65.5,51.6,61,29.83,10.0,SSE,3.5,-,N/A,,Clear,150,2013-09-23 03:15:00
9:35 PM,65.3,50.9,60,29.84,10.0,Calm,Calm,-,N/A,,Clear,0,2013-09-23 03:35:00
9:55 PM,64.4,51.6,63,29.83,10.0,SSE,3.5,-,N/A,,Clear,150,2013-09-23 03:55:00
10:15 PM,64.4,51.6,63,29.83,10.0,Calm,Calm,-,N/A,,Clear,0,2013-09-23 04:15:00
10:35 PM,64.0,50.5,61,29.83,10.0,SSE,3.5,-,N/A,,Clear,160,2013-09-23 04:35:00
10:55 PM,63.9,50.4,61,29.84,10.0,SSE,3.5,-,N/A,,Clear,160,2013-09-23 04:55:00
11:15 PM,62.1,51.4,68,29.84,10.0,SE,3.5,-,N/A,,Clear,140,2013-09-23 05:15:00
11:35 PM,63.3,50.5,63,29.83,10.0,SE,3.5,-,N/A,,Clear,140,2013-09-23 05:35:00
11:55 PM,62.1,51.4,68,29.83,10.0,SSE,3.5,-,N/A,,Clear,160,2013-09-23 05:55:00